Location: Betpouey
(42.8833°N, 0.0333°E)
Time: 22:29:23
(UTC+00:00)

Cosmos 1238 Rocket - Pass Details

Date: 01 December 2020
Orbit: 376 x 1024 km, 83.0° (Epoch: 19 January)

Event Time Altitude Azimuth Distance (km) Brightness Sun altitude
Rises 18:59:36 0° 345° (NNW) 2,687 6.5 -27.4°
Reaches altitude 10° 19:01:38 10° 339° (NNW) 1,881 5.7 -27.8°
Maximum altitude 19:05:36 46° 266° (W) 880 4.1 -28.5°
Drops below altitude 10° 19:10:22 10° 194° (SSW) 2,258 6.1 -29.4°
Sets 19:13:01 0° 189° (S) 3,293 6.9 -29.8°
